Voltar ao catálogo

STARLINK-5706

AtivoComunicaçõesVLEO
NORAD 55488·PAYLOAD·🇺🇸 United States

Lançado Feb 2, 2023 de Cape Canaveral Space Force Station

Loading…

Próximas Passagens (próximas 24 horas)

TLE

AtualizadoSource: CelesTrak SupGP

Época: Sep 15, 2026, 01:35 UTC

1 55488C 23015AR  26258.06645833 -.00009072  00000+0 -32863-3 0  2581
2 55488  43.0037 350.2259 0001659 281.0387 236.2871 15.27578594    18

Acompanhe STARLINK-5706 em tempo real com AllMySat

Download on the App Store